Notices

What's New in latest Release from April 7th, 2021:

- Updated Glossary, including Speed of Maximum Gust, and Total Hourly Precipitation

- Updated national and regional climate services offices contacts and prices information

- Addition of station inventory lists for 1981-2010, 1971-2000, and 1961-1990 Normals.

If you haven't already, please take our survey and provide feedback about our website: https://eccc.sondage-survey.ca/f/LanguageSelection.aspx?s=442ca660-fcf1-47c0-95a9-59707d6fd709

Hourly Data Report for April 21, 2021

KENORA A
ONTARIO
Current Station Operator: NAVCAN

49°47'18.000" N
94°21'47.000" W
409.70 m
6034076
71850
YQK

Download Data

Hourly Data (April 2021)
Hourly Data Report for April 21, 2021
TIME
LST
Temp Definition
°C
Dew Point Definition
°C
Rel Hum Definition
%
Precip. Amount Definition
mm

Wind Dir Definition
10's deg

Wind Spd Definition
km/h
Visibility Definition
km
Stn Press Definition
kPa
Hmdx Definition


Wind Chill Definition


Weather Definition


00:00 -3.5 -13.0 48   31 7 32.2 97.12   -6 Mostly Cloudy
01:00 -4.0 -12.1 54   30 8 32.2 97.09   -7 LegendNANA
02:00 -4.7 -11.5 59   29 9 32.2 97.04   -9 LegendNANA
03:00 -5.6 -10.5 69   30 11 32.2 97.04   -10 Mainly Clear
04:00 -6.2 -10.5 72   29 13 32.2 97.03   -12 LegendNANA
05:00 -6.5 -10.4 74   29 10 32.2 97.01   -11 LegendNANA
06:00 -6.0 -10.0 74   29 9 32.2 97.02   -10 Mainly Clear
07:00 -4.9 -9.3 72   29 9 32.2 97.00   -9 LegendNANA
08:00 -3.2 -8.6 67   28 13 32.2 96.99   -8 Snow Showers
09:00 -2.2 -7.5 67   27 14 32.2 96.94   -7 Cloudy
10:00 -1.5 -8.2 60   30 12 32.2 96.92   -6 LegendNANA
11:00 0.3 -7.6 55   23 14 32.2 96.88     LegendNANA
12:00 2.0 -6.8 52   36 1 32.2 96.81     Mostly Cloudy
13:00 3.3 -6.7 48   23 14 32.2 96.75     LegendNANA
14:00 4.3 -6.2 47   20 14 32.2 96.69     LegendNANA
15:00 4.6 -6.3 45   22 9 32.2 96.63     Mainly Clear
16:00 5.3 -5.4 46   20 10 32.2 96.56     LegendNANA
17:00 5.6 -5.8 44   22 12 32.2 96.50     LegendNANA
18:00 5.1 -5.6 46   19 14 32.2 96.44     Mainly Clear
19:00 4.0 -5.2 51   18 8 32.2 96.40     LegendNANA
20:00 2.6 -5.2 57   17 9 32.2 96.38     LegendNANA
21:00 1.7 -4.7 63   17 10 32.2 96.35     Mainly Clear
22:00 1.0 -4.6 66   18 12 32.2 96.32     LegendNANA
23:00 1.0 -4.4 67   18 16 32.2 96.28     LegendNANA

Notes on Data Quality.

Legend

  • E = Estimated
  • M = Missing
  • NA = Not Available*
  • [empty] = Indicates an unobserved value
Date modified: